www.pogodaiklimat.ru

Погода и климат >> Архив погоды >> Индонезия >> Nangapinoh


ПОГОДА в Nangapinoh

  • Прогноз погоды в Nangapinoh
  • Монитор погоды в Nangapinoh
  • Климат города

АРХИВ ПОГОДЫ в Nangapinoh

Время (UTC), дата Ветер
(напр.,м/с)
 
Видим.   Явления Облачность Т
(С)
Тd
(С)
f
(%)
Тe
(С)
Тes
(С)
Комфортность P
(гПа)
Po
(гПа)
Тmin
(С)
Tmax
(С)
R
(мм)
S
(см)
00 21.03 штиль 0 1000 м слабый дождь 10/0
[Cb cap As op]
+22.9 +22.4 97 +31 +32 очень
душно
1013.6 1008.8 +22.6
03 21.03 штиль 0 1000 м слабый дождь 10/0
[Cb cap As op]
+24.6 +23.0 91 +33 +38 очень
душно
1013.6 1008.8
06 21.03 штиль 0 1000 м слабый дождь 10/0
[Cb cap As op]
+25.2 +23.5 90 +34 +39 очень
душно
1010.4 1005.6
09 21.03 ЮЗ 2 10 км 9/0
[Cb calv As op]
+26.6 +24.1 86 +37 +38 очень
душно
1009.0 1004.2
12 21.03 штиль 0 5000 м мгла {дождь} 10/0 2000 м
[Cu med, cong As op]
+26.0 +24.8 93 +37 +37 очень
душно
1010.4 1005.6 +26.9
15 21.03 штиль 0 1000 м мгла 9/0 2000 м
[Cu med, cong As op]
+24.7 +23.9 95 +34 +34 очень
душно
1011.7 1006.9
00 22.03 штиль 0 6000 м 9/0 2000 м
[Cu med, cong Ac As Ci fib]
+23.9 +23.3 96 +32 +34 очень
душно
1012.0 1007.2 +22.9
03 22.03 С 2 10 км 9/0 2000 м
[Cu med, cong Ac As Ci fib]
+29.0 +24.7 78 +41 +52 опасность
перегрева
1011.8 1007.0
06 22.03 СЗ 2 10 км 8/0 2000 м
[Cu med, cong As op Ci fib]
+32.2 +23.8 61 +44 +56 опасность
перегрева
1008.3 1003.6
09 22.03 С 2 10 км 8/0
[Cb cap Ac As Ci fib]
+33.8 +24.2 57 +46 +48 опасность
перегрева
1007.0 1002.2
12 22.03 штиль 0 5000 м мгла 8/0 2000 м
[Cu med, cong As op Ci fib]
+30.2 +26.1 79 +46 +46 опасность
перегрева
1008.7 1003.9 +34.2
15 22.03 штиль 0 2000 м зарница 10/0
[Cb cap As op]
+27.2 +24.9 87 +39 +39 очень
душно
1011.1 1006.3
00 23.03 штиль 0 10 км 9/0 1500 м
[Cu hum Ac As Ci fib]
+25.4 +23.6 90 +35 +37 очень
душно
1011.0 1006.2 +24.1
03 23.03 Ю 1 10 км 8/0 2000 м
[Cu med, cong Ac As Ci fib]
+30.0 +23.9 70 +41 +54 опасность
перегрева
1011.4 1006.6
06 23.03 З 2 10 км осадки на расстоянии 8/0
[Cb calv As op Ci fib]
+33.6 +23.8 57 +45 +57 опасность
перегрева
1008.1 1003.3
09 23.03 СЗ 1 5000 м в посл. час гроза {дождь} 10/0
[Cb cap As op]
+27.8 +24.2 81 +39 +40 очень
душно
1007.2 1002.4
12 23.03 штиль 0 6000 м {гроза, дождь} 10/0
[Cb cap As op]
+27.0 +25.1 89 +39 +39 очень
душно
1009.6 1004.8 +34.1
15 23.03 В 1 1000 м зарница 10/0
[Cb cap As op]
+26.0 +24.5 91 +36 +36 очень
душно
1011.7 1006.9
00 24.03 штиль 0 3000 м мгла 10/0 2000 м
[Cu med, cong As op]
+23.2 +22.3 95 +32 +33 очень
душно
1013.1 1008.3 +23.2
03 24.03 Ю 2 10 км 5/0 2000 м
[Cu hum As trans Ci fib]
+27.4 +22.9 76 +36 +52 опасность
солнечного
удара
1012.9 1008.1
06 24.03 ЮВ 2 10 км 5/0 2000 м
[Cu med, cong As trans Ci fib]
+32.1 +22.7 58 +42 +56 опасность
перегрева
1009.8 1005.0
09 24.03 В 2 10 км 5/0 2000 м
[Cu med, cong As trans Ci fib]
+33.5 +22.6 53 +43 +46 опасность
перегрева
1007.3 1002.6
12 24.03 ЮВ 1 8000 м 5/0
[Cb calv As trans Ci fib]
+30.1 +25.4 76 +44 +44 опасность
перегрева
1009.4 1004.6 +34.1
15 24.03 штиль 0 4000 м зарница 8/0
[Cb cap As trans Ci fib]
+26.7 +24.2 86 +37 +37 очень
душно
1011.6 1006.8
00 25.03 штиль 0 1000 м мгла 10/0
[Cb calv As op]
+25.0 +23.7 93 +34 +35 очень
душно
1013.3 1008.5 +23.3
03 25.03 С 2 8000 м 9/6 300 м
[Cb calv As op Ci fib]
+28.2 +24.0 78 +39 +44 очень
душно
1013.7 1008.9
06 25.03 С 2 10 км 8/5 330 м
[Cu med, cong As trans Ci fib]
+32.0 +24.1 63 +44 +51 опасность
перегрева
1009.7 1004.9
09 25.03 СЗ 3 10 км 8/0 2000 м
[Cu med, cong As trans Ci fib]
+33.3 +23.6 57 +44 +46 опасность
перегрева
1007.6 1002.9
12 25.03 СЗ 2 8000 м 8/0 2000 м
[Cu med, cong As op Ci fib]
+29.2 +24.6 76 +41 +41 опасность
перегрева
1009.9 1005.1 +33.7
15 25.03 штиль 0 3000 м зарница 8/0
[Cb cap As op Ci fib]
+26.8 +24.4 87 +38 +38 очень
душно
1012.4 1007.6
00 26.03 Ю 1 6000 м слабый дождь 10/0
[Cb cap As op]
+25.0 +24.1 95 +34 +35 очень
душно
1012.4 1007.7 +25.1
03 26.03 В 2 10 км {дождь} 9/0
[Cb cap Ac As Ci fib]
+28.6 +24.3 78 +40 +51 опасность
солнечного
удара
1013.2 1008.4
06 26.03 В 2 10 км {дождь} 9/0 2000 м
[Cu med, cong As op Ci fib]
+31.6 +23.8 63 +43 +53 опасность
перегрева
1011.0 1006.2
09 26.03 В 2 10 км 9/0 2000 м
[Cu med, cong As op Ci fib]
+31.5 +23.4 62 +42 +44 опасность
перегрева
1008.9 1004.1
12 26.03 Ю 2 6000 м 10/0 2000 м
[Cu med, cong As op Ci fib]
+28.3 +25.3 84 +41 +41 опасность
перегрева
1011.3 1006.5 +32.5
15 26.03 ЮВ 2 2000 м зарница 9/0
[Cb cap As op]
+26.6 +24.2 87 +37 +37 очень
душно
1013.3 1008.5
00 27.03 штиль 0 10 км 9/0 1500 м
[Cu hum Ac As Ci fib]
+24.8 +23.3 91 +33 +35 очень
душно
1012.8 1008.0 +24.9
03 27.03 В 2 10 км 8/0 1500 м
[Cu hum Ac As Ci fib]
+29.8 +23.4 69 +40 +52 опасность
солнечного
удара
1012.1 1007.3
06 27.03 ЮЗ 2 10 км 8/0 2000 м
[Cu med, cong Ac As Ci fib]
+33.4 +23.6 57 +45 +57 опасность
перегрева
1009.8 1005.0
09 27.03 СВ 3 8000 м гроза без осадков 9/0
[Cb cap As op Ci fib]
+33.6 +25.5 63 +48 +50 опасность
перегрева
1007.7 1002.9
12 27.03 В 2 5000 м гроза без осадков 10/0
[Cb cap As op]
+25.4 +22.3 83 +33 +33 очень
душно
1010.6 1005.8 +34.9
15 27.03 В 1 2000 м зарница 8/0
[Cb cap As op Ci fib]
+24.7 +22.6 88 +32 +32 очень
душно
1013.0 1008.2

 

Местоположение метеостанции Nangapinoh (Индонезия): широта -0.35 долгота 111.78 высота над уровнем моря 37 м.

В архиве по умолчанию представлена погода в Nangapinoh за последнюю неделю. Архивные данные за месяц целиком и за предыдущие месяцы, начиная с января 2011 года, Вы можете получить, выбрав интересующий диапазон дат из раскрывающегося списка и нажав кнопку "Ввод!".

Внимание! Время в таблицах - всемирное. Для получения местного времени необходимо прибавить поправку, которая в Nangapinoh равна 7 ч.

Смотрите также архив погоды в соседних городах и на ближайших метеорологических станциях:

Погода в Sintang (Индонезия) (59 км)
Погода в Putussibau (Индонезия) (185 км)
Погода в Palangkaraya (Индонезия) (257 км)
Погода в Kuching (Малайзия) (260 км)
Погода в Pangkalan Bun (Индонезия) (262 км)
Погода в Ketapang (Индонезия) (262 км)
Погода в Pontianak (Индонезия) (266 км)
Погода в Sibu (Малайзия) (298 км)
Погода в Muaratewe (Индонезия) (353 км)
Погода в Paloh (Индонезия) (363 км)

Пояснения к столбцам:

Ветер - указаны скорость ветра в м/с - средняя за 10 мин, порывы в срок и между сроками (в фигурных скобках) и направление, откуда дует ветер: С - северный, СВ - северо-восточный, В - восточный, ЮВ - юго-восточный, Ю - южный, ЮЗ - юго-западный, З - западный, СЗ - северо-западный.
Видимость - горизонтальная дальность видимости в метрах или километрах. При видимости от 1 до 10 км при отсутствии осадков обычно наблюдается дымка, при ухудшении видимости до 1 км и менее - туман. В сухую погоду видимость может ухудшаться дымом, пылью или мглою.
Явления - указаны атмосферные явления, наблюдавшиеся в срок или в последний час перед сроком; фигурными скобками обозначены явления, наблюдавшиеся между сроками (за 1-3 часа до срока); квадратными скобками обозначены град или гололедные отложения с указанием их диаметра в мм.
Облачность - указаны через наклонную черту общая и нижняя облачность в баллах и высота нижней границы облаков в метрах; квадратными скобками обозначены формы облаков: Ci - перистые, Cs - перисто-слоистые, Cc - перисто-кучевые, Ac - высококучевые, As - высокослоистые, Sc - слоисто-кучевые, Ns - слоисто-дождевые, Cu - кучевые, Cb - кучево-дождевые. Подробнее классификацию облаков см. в Атласе облаков (PDF).
T - Температура воздуха - температура, измеренная на высоте 2 м над землей.
Td - Температура точки росы - температура, при понижении до которой содержащийся в воздухе водяной пар достигнет насыщения.
f - Относительная влажность воздуха - влажноcть воздуха, измеренная на высоте 2 м над землей.
Te - Эффективная температура - температура, которую ощущает одетый по сезону человек в тени. Характеристика душности погоды. При расчете учитывается влияние влажности воздуха и скорости ветра на теплоощущения человека.
Tes - Эффективная температура на солнце - температура, которую ощущает человек, с поправкой на солнечный нагрев. Характеристика знойности погоды. Зависит от высоты солнца над горизонтом, облачности и скорости ветра. Ночью, в пасмурную погоду, а также при ветре 12 м/с и более поправка равна нулю.
P - Атмосферное давление - приведенное к уровню моря атмосферное давление.
Po - Атмосферное давление - измеренное на уровне метеостанции атмосферное давление.
Tmin - Минимальная температура - минимум температуры воздуха на высоте 2 м над землей.
Tmax - Максимальная температура - максимум температуры воздуха на высоте 2 м над землей.
R - Количество осадков - Количество выпавших осадков, мм. При наведении курсора мыши на число - период времени, за который выпало указанное количество осадков.
S - Снежный покров - Высота снежного покрова, см. При наведении курсора мыши на число - состояние снежного покрова и степень покрытия местности в баллах.